Worcester, MA

9:11 AM EDT on June 25, 2017 (GMT -0400)
Worcester Regional

Weather History for KORH - March, 2013

Change the Weather History Date:

Friday, March 22, 2013

  Actual Average Record
Temperature  
Mean Temperature 28 °F 37 °F  
Max Temperature 35 °F 45 °F 78 °F (2012)
Min Temperature 20 °F 28 °F 8 °F (1988)
Degree Days  
Heating Degree Days 37 28  
Month to date heating degree days 727 699  
Since 1 July heating degree days 5164 5536  
Cooling Degree Days 0 0  
Month to date cooling degree days 0 0  
Year to date cooling degree days 0 0  
Moisture  
Dew Point 15 °F    
Average Humidity 58    
Maximum Humidity 73    
Minimum Humidity 43    
Precipitation  
Precipitation T in 0.16 in 1.66 in (2001)
Month to date precipitation 3.35 2.90  
Year to date precipitation 10.23 9.62  
Sea Level Pressure  
Sea Level Pressure 29.68 in    
Wind  
Wind Speed 15 mph (WNW)    
Max Wind Speed 26 mph    
Max Gust Speed 32 mph    
Visibility 10 miles    
Events Snow    
T = Trace of Precipitation, MM = Missing Value Source: NWS Daily Summary

Daily Weather History Graph

Daily Weather History Graph

Search for Another Location

Airport or City:

Trip Planner

Search our weather history database for the weather conditions in past years. The results will help you decide how hot, cold, wet, or windy it might be!

Date:

Astronomy

Mar. 22, 2013 Rise Set
Actual Time 6:46 AM EDT 7:02 PM EDT
Civil Twilight 6:18 AM EDT 7:30 PM EDT
Nautical Twilight 5:46 AM EDT 8:03 PM EDT
Astronomical Twilight 5:12 AM EDT 8:36 PM EDT
Moon 2:22 PM EDT (3/22) 3:50 AM EDT (3/22)
Length of Visible Light 13h 11m
Length of Day
12h 15m
Waxing Gibbous, 77% of the Moon is Illuminated
Mar 22
Waxing Gibbous
Mar 27
Full
Apr 3
Last Quarter
Apr 10
New
Apr 18
First Quarter

Hourly Weather History & Observations

Time (EDT) Temp. Windchill Dew Point Humidity Pressure Visibility Wind Dir Wind Speed Gust Speed Precip Events Conditions
12:54 AM 26.1 °F 15.0 °F 14.0 °F 60% 29.63 in 10.0 mi WNW 12.7 mph - N/A   Overcast
1:54 AM 26.1 °F 14.0 °F 14.0 °F 60% 29.63 in 10.0 mi WNW 15.0 mph - N/A   Mostly Cloudy
2:54 AM 25.0 °F 13.1 °F 15.1 °F 66% 29.62 in 10.0 mi NW 13.8 mph - N/A   Overcast
3:54 AM 24.1 °F 11.5 °F 15.1 °F 69% 29.62 in 10.0 mi WNW 15.0 mph - N/A   Clear
4:54 AM 21.9 °F 8.7 °F 14.0 °F 72% 29.62 in 10.0 mi WNW 15.0 mph - N/A   Clear
5:54 AM 21.0 °F 7.6 °F 12.9 °F 71% 29.63 in 10.0 mi WNW 15.0 mph - N/A   Clear
6:54 AM 19.9 °F 6.2 °F 12.0 °F 71% 29.65 in 10.0 mi WNW 15.0 mph - N/A   Clear
7:54 AM 21.9 °F 9.2 °F 12.0 °F 66% 29.67 in 10.0 mi WNW 13.8 mph - N/A   Clear
8:54 AM 25.0 °F 13.1 °F 12.0 °F 58% 29.67 in 10.0 mi NW 13.8 mph - N/A   Clear
9:54 AM 28.0 °F 17.0 °F 12.9 °F 53% 29.68 in 10.0 mi WNW 13.8 mph - N/A   Clear
10:54 AM 30.0 °F 19.5 °F 15.1 °F 54% 29.68 in 10.0 mi WNW 13.8 mph 18.4 mph N/A   Clear
11:54 AM 30.0 °F 21.1 °F 16.0 °F 56% 29.68 in 10.0 mi WSW 10.4 mph - N/A   Scattered Clouds
12:54 PM 33.1 °F 23.4 °F 16.0 °F 50% 29.68 in 10.0 mi West 13.8 mph - N/A   Mostly Cloudy
1:54 PM 33.1 °F 21.5 °F 14.0 °F 46% 29.67 in 10.0 mi West 19.6 mph 28.8 mph N/A   Overcast
2:54 PM 34.0 °F 23.0 °F 15.1 °F 46% 29.66 in 10.0 mi WNW 18.4 mph 29.9 mph N/A   Mostly Cloudy
3:54 PM 34.0 °F 24.6 °F 14.0 °F 44% 29.65 in 10.0 mi West 13.8 mph 26.5 mph N/A   Mostly Cloudy
4:54 PM 33.1 °F 23.0 °F 19.0 °F 56% 29.68 in 9.0 mi WNW 15.0 mph 23.0 mph 0.00 in   Overcast
5:54 PM 32.0 °F 20.1 °F 19.0 °F 59% 29.69 in 10.0 mi West 19.6 mph 24.2 mph N/A   Overcast
6:54 PM 30.9 °F 20.7 °F 19.9 °F 64% 29.71 in 9.0 mi West 13.8 mph 21.9 mph 0.00 in Snow Light Snow
7:54 PM 30.0 °F 18.7 °F 18.0 °F 61% 29.73 in 10.0 mi West 16.1 mph 25.3 mph 0.00 in   Partly Cloudy
8:54 PM 28.9 °F 18.2 °F 18.0 °F 64% 29.74 in 10.0 mi West 13.8 mph - N/A   Clear
9:54 PM 28.0 °F 18.1 °F 16.0 °F 61% 29.75 in 10.0 mi West 11.5 mph 24.2 mph N/A   Clear
10:54 PM 27.0 °F 15.6 °F 16.0 °F 63% 29.75 in 10.0 mi West 13.8 mph - N/A   Clear
11:54 PM 26.1 °F 15.6 °F 17.1 °F 69% 29.76 in 10.0 mi West 11.5 mph - N/A   Partly Cloudy